This is the latest recevied weather packets stored in our database for station/object WW5JC. If no packets are shown the sender has not sent any weather packets the latest 10 day(s).
| Time | Temp. | Humidity | Pressure | Rain* | Wind** | Luminosity | Snow |
|---|---|---|---|---|---|---|---|
| 1777239876 | 28.89° C | 75% | 1008.1 hPa | 0 mm | - | 398 W/m² | - |
| 1777239573 | 28.89° C | 76% | 1008.2 hPa | 0 mm | - | 437 W/m² | - |
| 1777239268 | 28.89° C | 75% | 1008.1 hPa | 0 mm | - | 418 W/m² | - |
| 1777238966 | 28.89° C | 75% | 1008.2 hPa | 0 mm | - | 457 W/m² | - |
| 1777238663 | 28.33° C | 74% | 1008.2 hPa | 0 mm | - | 461 W/m² | - |
| 1777238360 | 28.89° C | 75% | 1008.3 hPa | 0 mm | - | 153 W/m² | - |
| 1777238056 | 28.33° C | 75% | 1008.5 hPa | 0 mm | - | 517 W/m² | - |
| 1777237753 | 27.78° C | 77% | 1008.6 hPa | 0 mm | - | 150 W/m² | - |
| 1777237450 | 27.78° C | 77% | 1008.5 hPa | 0 mm | - | 174 W/m² | - |
| 1777237147 | 28.33° C | 76% | 1008.5 hPa | 0 mm | - | 185 W/m² | - |
| 1777236845 | 28.89° C | 76% | 1008.5 hPa | 0 mm | - | 573 W/m² | - |
| 1777236544 | 28.89° C | 76% | 1008.5 hPa | 0 mm | - | 588 W/m² | - |
| 1777236242 | 28.89° C | 75% | 1008.6 hPa | 0 mm | - | 198 W/m² | - |
| 1777235942 | 28.33° C | 75% | 1008.7 hPa | 0 mm | - | 662 W/m² | - |
| 1777235639 | 27.78° C | 75% | 1008.9 hPa | 0 mm | - | 466 W/m² | - |
| 1777235336 | 28.33° C | 76% | 1008.9 hPa | 0 mm | - | 505 W/m² | - |
| 1777235032 | 28.89° C | 76% | 1009.1 hPa | 0 mm | - | 631 W/m² | - |
| 1777234728 | 28.89° C | 76% | 1008.8 hPa | 0 mm | - | 606 W/m² | - |
| 1777234424 | 28.33° C | 76% | 1008.9 hPa | 0 mm | - | 600 W/m² | - |
| 1777234119 | 28.33° C | 75% | 1009 hPa | 0 mm | - | 632 W/m² | - |
| 1777233816 | 28.33° C | 76% | 1009.1 hPa | 0 mm | - | 632 W/m² | - |
| 1777233513 | 28.33° C | 76% | 1009.1 hPa | 0 mm | - | 644 W/m² | - |
| 1777233211 | 28.33° C | 76% | 1009 hPa | 0 mm | - | 647 W/m² | - |
| 1777232906 | 28.33° C | 78% | 1009.1 hPa | 0 mm | - | 654 W/m² | - |
| 1777232605 | 28.33° C | 76% | 1009.2 hPa | 0 mm | - | 660 W/m² | - |
* Rain latest hour (hover to see other rain measurements)
** Current wind speed in m/s (hover to see current wind gust speed)